Content
SEND FEEDBACK

Daily
Averages
Monthly
Summary
United States of America

JACKSON, NORTH CAROLINA


Home > North America > United States > North Carolina
Elevation: 31 meters     Latitude: 36 24N     Longitude: 077 25W

WEATHER
 
SELECT A DAY
Number of Records: 120,191;   Date Range: 7/22/09 - 9/22/14
 
SHARE

PRINT THIS DATA

[ ← Previous Day ]
WEATHER ALMANAC - 31 JANUARY, 2013
[ Next Day → ]
[ °F ]   °C
Weather ElementAverageHighLow
Temperature9.8 °C22 °C (12:35 am)1 °C (11:15 pm)
Dewpoint1.4 °C18 °C (12:55 am)-6 °C (5:15 pm)
Humidity58.8 %100 % (2:35 am)33 % (3:35 pm)
Barometer1007.5 hPa1015.9 hPa (9:55 pm)993.6 hPa (12:55 am)
Wind Speed25.7 km/h66.6 km/h (1:35 am)
Wind Gust83.4 km/h (1:35 am)
Weather ElementAverage
Visibility15.8 km
Wind DirectionWSW (249.3 °)

Weather ElementTotal
Precipitation11.43 mm
Heating Degree Days6.8 (Base 18.3)
Growing Degree Days1.5 (Base 10)
Averaged from 70 records on 31 January, 2013
WEATHER CONDITIONS BREAKOUT
WIND DIRECTION BREAKOUT
WEATHER BY HOUR - 31 JANUARY, 2013
[ °F ]   °C
Local TimeTemperatureDewpointHumidityBarometerVisibilityWind DirectionWind SpeedGust SpeedPrecipitationEventsConditions
12:35 AM22 °C17 °C73 %994.6 hPa16.1 kmSouth (180°)48.1 km/h66.6 km/hRainLight Rain
12:55 AM22 °C18 °C78 %993.6 hPa16.1 kmSouth (180°)40.7 km/h59.2 km/hRainLight Rain
1:15 AM21 °C18 °C83 %995.6 hPa11.3 kmWSW (240°)51.8 km/h68.6 km/hRainRain
1:35 AM17 °C16 °C94 %996.6 hPa11.3 kmWSW (240°)66.6 km/h83.4 km/h4.06 mmRainLight Rain
1:55 AM16 °C15 °C94 %997.3 hPa11.3 kmWSW (240°)53.8 km/h68.6 km/h4.32 mmRainRain
2:15 AM15 °C14 °C94 %997.6 hPa11.3 kmWSW (240°)57.5 km/h76 km/h0.51 mmRainRain
2:35 AM13 °C13 °C100 %996.6 hPa16.1 kmSW (230°)40.7 km/h64.9 km/h0.51 mmRainLight Rain
2:55 AM14 °C11 °C82 %997 hPa16.1 kmSW (220°)40.7 km/h53.8 km/h0.51 mmLight Drizzle
3:15 AM13 °C11 °C88 %997 hPa16.1 kmSW (220°)33.3 km/h48.1 km/h0.25 mmRainLight Rain
3:35 AM13 °C11 °C88 %997 hPa16.1 kmSW (230°)31.5 km/h44.4 km/h0.25 mmOvercast
3:55 AM13 °C10 °C82 %997.6 hPa16.1 kmSW (230°)48.1 km/h59.2 km/h0.25 mmOvercast
4:15 AM13 °C10 °C82 %998.3 hPa16.1 kmSW (230°)38.9 km/h55.5 km/hOvercast
4:35 AM13 °C10 °C82 %998.6 hPa16.1 kmWSW (240°)33.3 km/h50.1 km/hOvercast
4:55 AM12 °C8 °C77 %999 hPa16.1 kmSW (230°)38.9 km/h55.5 km/hMostly Cloudy
5:15 AM12 °C8 °C77 %999.3 hPa16.1 kmSW (230°)33.3 km/h53.8 km/hMostly Cloudy
5:35 AM12 °C8 °C77 %1000 hPa16.1 kmWSW (240°)38.9 km/h50.1 km/hOvercast
5:55 AM12 °C8 °C77 %1000.7 hPa16.1 kmWSW (250°)31.5 km/h50.1 km/hOvercast
6:15 AM11 °C8 °C82 %1001 hPa16.1 kmWest (260°)22.2 km/h50.1 km/h0.25 mmRainLight Rain
6:35 AM11 °C8 °C82 %1001.7 hPa16.1 kmWest (260°)18.5 km/h0.25 mmScattered Clouds
6:55 AM11 °C8 °C82 %1002.4 hPa16.1 kmWest (260°)27.8 km/h33.3 km/h0.25 mmScattered Clouds
7:15 AM11 °C6 °C71 %1003 hPa16.1 kmWest (260°)29.6 km/h48.1 km/hScattered Clouds
7:55 AM10 °C3 °C62 %1004.1 hPa16.1 kmWest (260°)25.9 km/h46.3 km/hMostly Cloudy
8:15 AM10 °C2 °C58 %1004.7 hPa16.1 kmWest (270°)27.8 km/h38.9 km/hClear
8:35 AM10 °C2 °C58 %1005.4 hPa16.1 kmWest (280°)18.5 km/h37 km/hScattered Clouds
8:55 AM11 °C1 °C50 %1006.1 hPa16.1 kmWNW (290°)14.8 km/h38.9 km/hMostly Cloudy
9:15 AM10 °C1 °C54 %1006.8 hPa16.1 kmWest (280°)27.8 km/h46.3 km/hMostly Cloudy
9:35 AM10 °C0 °C50 %1007.1 hPa16.1 kmWest (270°)22.2 km/h37 km/hScattered Clouds
9:55 AM11 °C1 °C50 %1007.5 hPa16.1 kmWest (280°)22.2 km/h27.8 km/hScattered Clouds
10:15 AM10 °C0 °C50 %1008.1 hPa16.1 kmWest (260°)29.6 km/h40.7 km/hMostly Cloudy
10:35 AM9 °C0 °C54 %1008.5 hPa16.1 kmWest (270°)22.2 km/h38.9 km/hScattered Clouds
10:55 AM11 °C1 °C50 %1008.8 hPa16.1 kmWest (270°)24.1 km/h44.4 km/hScattered Clouds
11:15 AM10 °C0 °C50 %1008.8 hPa16.1 kmWest (270°)31.5 km/h46.3 km/hScattered Clouds
11:35 AM11 °C-2 °C41 %1009.1 hPa16.1 kmWest (280°)29.6 km/h51.8 km/hScattered Clouds
11:55 AM10 °C-3 °C40 %1009.5 hPa16.1 kmWest (260°)37 km/h55.5 km/hClear
12:15 PM11 °C-3 °C38 %1009.1 hPa16.1 kmWest (280°)25.9 km/h35.2 km/hClear
12:35 PM11 °C-2 °C41 %1008.8 hPa16.1 kmWSW (250°)35.2 km/h44.4 km/hClear
12:55 PM11 °C-3 °C38 %1008.8 hPa16.1 kmWest (260°)33.3 km/h50.1 km/hClear
1:15 PM11 °C-4 °C35 %1008.5 hPa16.1 kmWest (280°)20.4 km/h44.4 km/hClear
1:35 PM11 °C-4 °C35 %1008.8 hPa16.1 kmWest (270°)29.6 km/h42.6 km/hClear
1:55 PM11 °C-3 °C38 %1008.8 hPa16.1 kmWest (270°)14.8 km/h50.1 km/hClear
2:15 PM12 °C-2 °C38 %1008.8 hPa16.1 kmWest (260°)33.3 km/h44.4 km/hScattered Clouds
2:35 PM11 °C-3 °C38 %1009.5 hPa16.1 kmWest (260°)31.5 km/h46.3 km/hScattered Clouds
2:55 PM11 °C-4 °C35 %1009.8 hPa16.1 kmWSW (250°)33.3 km/h50.1 km/hScattered Clouds
3:15 PM11 °C-4 °C35 %1009.8 hPa16.1 kmWest (270°)20.4 km/h44.4 km/hScattered Clouds
3:35 PM11 °C-5 °C33 %1010.2 hPa16.1 kmWest (280°)24.1 km/h42.6 km/hScattered Clouds
3:55 PM10 °C-5 °C35 %1010.5 hPa16.1 kmWest (270°)27.8 km/h48.1 km/hClear
4:15 PM10 °C-4 °C37 %1010.8 hPa16.1 kmWest (270°)24.1 km/h42.6 km/hScattered Clouds
4:35 PM10 °C-5 °C35 %1011.5 hPa16.1 kmWest (260°)24.1 km/h53.8 km/hScattered Clouds
4:55 PM10 °C-5 °C35 %1011.9 hPa16.1 kmWest (280°)24.1 km/h35.2 km/hScattered Clouds
5:15 PM9 °C-6 °C34 %1012.2 hPa16.1 kmWest (270°)25.9 km/h50.1 km/hScattered Clouds
5:35 PM8 °C-6 °C37 %1012.5 hPa16.1 kmWest (270°)24.1 km/h40.7 km/hClear
5:55 PM8 °C-6 °C37 %1012.5 hPa16.1 kmWest (270°)16.7 km/h31.5 km/hClear
6:15 PM7 °C-5 °C43 %1013.2 hPa16.1 kmWest (270°)13 km/h31.5 km/hClear
6:35 PM7 °C-5 °C43 %1013.5 hPa16.1 kmWest (270°)14.8 km/h25.9 km/hClear
6:55 PM7 °C-5 °C43 %1013.9 hPa16.1 kmWest (270°)16.7 km/h31.5 km/hClear
7:15 PM6 °C-5 °C46 %1014.2 hPa16.1 kmWest (260°)11.1 km/hClear
7:35 PM6 °C-5 °C46 %1014.6 hPa16.1 kmWest (280°)13 km/hClear
7:55 PM6 °C-5 °C46 %1014.9 hPa16.1 kmWest (270°)9.3 km/hClear
8:15 PM5 °C-5 °C49 %1014.9 hPa16.1 kmWSW (250°)7.4 km/hClear
8:35 PM4 °C-3 °C61 %1014.9 hPa16.1 kmWSW (240°)11.1 km/hClear
8:55 PM3 °C-3 °C65 %1015.2 hPa16.1 kmWSW (250°)11.1 km/hClear
9:15 PM3 °C-3 °C65 %1015.2 hPa16.1 kmWSW (240°)11.1 km/hClear
9:35 PM3 °C-3 °C65 %1015.6 hPa16.1 kmWSW (240°)14.8 km/hClear
9:55 PM3 °C-3 °C65 %1015.9 hPa16.1 kmSW (230°)11.1 km/hClear
10:15 PM3 °C-3 °C65 %1015.9 hPa16.1 kmSW (230°)9.3 km/hClear
10:35 PM3 °C-3 °C65 %1015.6 hPa16.1 kmSW (230°)7.4 km/hClear
10:55 PM2 °C-3 °C70 %1015.6 hPa16.1 kmWSW (240°)5.6 km/hClear
11:15 PM1 °C-4 °C70 %1015.6 hPa16.1 kmSSW (200°)5.6 km/hClear
11:35 PM2 °C-3 °C70 %1015.9 hPa16.1 kmSSW (210°)5.6 km/hClear
11:55 PM1 °C-3 °C75 %1015.9 hPa16.1 kmCalmClear
Hourly data recorded from KIXA, located 0 kilometers away from Jackson, North Carolina







STORIES FROM OUR PARTNERS